• In India
  • List of Countries
  • For 7 days
  • Water Temperature
  • Satellite Maps
  • Weather Map
  • Weather Widgets
  • user-avatar
    Login

    Hourly Weather Durres

    Today, 24 November, Friday

    Time Temperature Precipitation Wind Pressure Humidity
    00:00 +11°C° 0 mm 1 mps 765 mmHg 64%
    01:00 +11°C° 0 mm 1 mps 765 mmHg 63%
    02:00 +10°C° 0 mm 1 mps 765 mmHg 63%
    03:00 +10°C° 0 mm 1 mps 765 mmHg 63%
    04:00 +10°C° 0 mm 1 mps 765 mmHg 63%
    05:00 +10°C° 0 mm 1 mps 765 mmHg 64%
    06:00 +10°C° 0 mm 1 mps 765 mmHg 64%
    07:00 +10°C° 0 mm 1 mps 765 mmHg 64%
    08:00 +12°C° 0 mm 1 mps 765 mmHg 60%
    09:00 +13°C° 0 mm 1 mps 765 mmHg 57%
    10:00 +15°C° 0 mm 1 mps 765 mmHg 54%
    11:00 +16°C° 0 mm 1 mps 764 mmHg 54%
    12:00 +16°C° 0 mm 1 mps 764 mmHg 55%
    13:00 +18°C° 0 mm 1 mps 764 mmHg 56%
    14:00 +15°C° 0 mm 1 mps 764 mmHg 63%
    15:00 +14°C° 0 mm 1 mps 764 mmHg 70%
    16:00 +13°C° 0 mm 1 mps 764 mmHg 77%
    17:00 +12°C° 0 mm 1 mps 764 mmHg 80%
    18:00 +12°C° 0 mm 1 mps 764 mmHg 83%
    19:00 +11°C° 0 mm 1 mps 764 mmHg 86%
    20:00 +11°C° 0 mm 1 mps 765 mmHg 86%
    21:00 +11°C° 0 mm 1 mps 765 mmHg 85%
    22:00 +10°C° 0 mm 1 mps 765 mmHg 85%
    23:00 +10°C° 0 mm 1 mps 765 mmHg 84%

    Tomorrow, 25 November, Saturday

    Time Temperature Precipitation Wind Pressure Humidity
    00:00 +10°C° 0 mm 1 mps 765 mmHg 83%
    01:00 +10°C° 0 mm 1 mps 765 mmHg 82%
    02:00 +10°C° 0 mm 1 mps 764 mmHg 80%
    03:00 +10°C° 0 mm 1 mps 764 mmHg 79%
    04:00 +10°C° 0 mm 1 mps 764 mmHg 77%
    05:00 +9°C° 0 mm 2 mps 764 mmHg 76%
    06:00 +8°C° 0 mm 2 mps 764 mmHg 75%
    07:00 +8°C° 0 mm 2 mps 764 mmHg 74%
    08:00 +10°C° 0 mm 2 mps 764 mmHg 67%
    09:00 +13°C° 0 mm 2 mps 764 mmHg 61%
    10:00 +15°C° 0 mm 2 mps 764 mmHg 54%
    11:00 +16°C° 0 mm 2 mps 763 mmHg 53%
    12:00 +16°C° 0 mm 2 mps 763 mmHg 51%
    13:00 +16°C° 0 mm 2 mps 762 mmHg 50%
    14:00 +15°C° 0 mm 2 mps 762 mmHg 56%
    15:00 +14°C° 0 mm 2 mps 762 mmHg 62%
    16:00 +13°C° 0 mm 2 mps 762 mmHg 69%
    17:00 +13°C° 0 mm 2 mps 762 mmHg 71%
    18:00 +11°C° 0 mm 3 mps 762 mmHg 73%
    19:00 +10°C° 0 mm 3 mps 763 mmHg 75%
    20:00 +10°C° 0 mm 3 mps 763 mmHg 74%
    21:00 +10°C° 0 mm 4 mps 763 mmHg 73%
    22:00 +10°C° 0 mm 4 mps 763 mmHg 73%
    23:00 +9°C° 0 mm 5 mps 763 mmHg 73%

    Day after tomorrow, 26 November, Sunday

    Time Temperature Precipitation Wind Pressure Humidity
    00:00 +9°C° 0 mm 5 mps 762 mmHg 72%
    01:00 +8°C° 0 mm 5 mps 762 mmHg 72%
    02:00 +9°C° 0 mm 5 mps 762 mmHg 72%
    03:00 +9°C° 0 mm 6 mps 762 mmHg 72%
    04:00 +9°C° 0 mm 6 mps 761 mmHg 72%
    05:00 +9°C° 0 mm 6 mps 761 mmHg 71%
    06:00 +9°C° 0 mm 7 mps 761 mmHg 71%
    07:00 +9°C° 0 mm 7 mps 761 mmHg 71%
    08:00 +10°C° 0 mm 7 mps 760 mmHg 66%
    09:00 +12°C° 0 mm 7 mps 760 mmHg 61%
    10:00 +15°C° 0 mm 8 mps 760 mmHg 56%
    11:00 +16°C° 0.4 mm 8 mps 759 mmHg 56%
    12:00 +16°C° 0.4 mm 8 mps 759 mmHg 57%
    13:00 +17°C° 0.4 mm 8 mps 758 mmHg 58%
    14:00 +16°C° 1 mm 8 mps 758 mmHg 64%
    15:00 +15°C° 1 mm 8 mps 758 mmHg 71%
    16:00 +13°C° 1 mm 8 mps 757 mmHg 77%
    17:00 +13°C° 1.3 mm 8 mps 757 mmHg 80%
    18:00 +12°C° 1.3 mm 8 mps 757 mmHg 83%
    19:00 +12°C° 1.3 mm 9 mps 757 mmHg 86%
    20:00 +12°C° 1.3 mm 8 mps 757 mmHg 87%
    21:00 +12°C° 1.3 mm 7 mps 757 mmHg 89%
    22:00 +11°C° 1.3 mm 7 mps 757 mmHg 90%
    23:00 +11°C° 0.6 mm 6 mps 757 mmHg 90%

    27 November, Monday

    Time Temperature Precipitation Wind Pressure Humidity
    00:00 +12°C° 0.6 mm 5 mps 757 mmHg 90%
    01:00 +12°C° 0.6 mm 3 mps 757 mmHg 89%
    02:00 +11°C° 0.5 mm 3 mps 757 mmHg 90%
    03:00 +12°C° 0.5 mm 2 mps 756 mmHg 91%
    04:00 +12°C° 0.5 mm 2 mps 756 mmHg 92%
    05:00 +11°C° 0.4 mm 3 mps 756 mmHg 92%
    06:00 +11°C° 0.4 mm 3 mps 756 mmHg 91%
    07:00 +10°C° 0.4 mm 4 mps 757 mmHg 91%
    08:00 +10°C° 0.3 mm 5 mps 757 mmHg 87%
    09:00 +10°C° 0.3 mm 6 mps 757 mmHg 82%
    10:00 +10°C° 0.3 mm 6 mps 758 mmHg 78%
    11:00 +11°C° 0.1 mm 7 mps 758 mmHg 75%
    12:00 +11°C° 0.1 mm 7 mps 758 mmHg 72%
    13:00 +11°C° 0.1 mm 8 mps 758 mmHg 70%
    14:00 +10°C° 0 mm 8 mps 758 mmHg 70%
    15:00 +10°C° 0 mm 8 mps 758 mmHg 71%
    16:00 +10°C° 0 mm 7 mps 758 mmHg 71%
    17:00 +9°C° 0 mm 7 mps 759 mmHg 72%
    18:00 +8°C° 0 mm 7 mps 759 mmHg 73%
    19:00 +8°C° 0 mm 7 mps 759 mmHg 73%
    20:00 +6°C° 0 mm 7 mps 759 mmHg 73%
    21:00 +6°C° 0 mm 7 mps 760 mmHg 73%
    22:00 +6°C° 0 mm 7 mps 760 mmHg 73%
    23:00 +5°C° 0 mm 7 mps 760 mmHg 73%

    28 November, Tuesday

    Time Temperature Precipitation Wind Pressure Humidity
    00:00 +5°C° 0 mm 7 mps 760 mmHg 73%
    01:00 +5°C° 0 mm 7 mps 760 mmHg 73%
    02:00 +5°C° 0 mm 6 mps 760 mmHg 74%
    03:00 +4°C° 0 mm 6 mps 759 mmHg 74%
    04:00 +4°C° 0 mm 6 mps 759 mmHg 74%
    05:00 +4°C° 0 mm 6 mps 760 mmHg 74%
    06:00 +4°C° 0 mm 6 mps 760 mmHg 74%
    07:00 +5°C° 0 mm 5 mps 760 mmHg 74%
    08:00 +6°C° 0 mm 5 mps 760 mmHg 69%
    09:00 +7°C° 0 mm 5 mps 760 mmHg 63%
    10:00 +8°C° 0 mm 5 mps 760 mmHg 57%
    11:00 +9°C° 0 mm 5 mps 760 mmHg 56%
    12:00 +10°C° 0 mm 4 mps 760 mmHg 54%
    13:00 +11°C° 0 mm 4 mps 759 mmHg 53%
    14:00 +10°C° 0 mm 4 mps 759 mmHg 57%
    15:00 +8°C° 0 mm 4 mps 759 mmHg 62%
    16:00 +7°C° 0 mm 4 mps 759 mmHg 66%
    17:00 +8°C° 0 mm 3 mps 760 mmHg 68%
    18:00 +7°C° 0 mm 3 mps 760 mmHg 70%
    19:00 +5°C° 0 mm 3 mps 760 mmHg 72%
    20:00 +6°C° 0 mm 2 mps 760 mmHg 73%
    21:00 +6°C° 0 mm 2 mps 760 mmHg 74%
    22:00 +6°C° 0 mm 2 mps 760 mmHg 75%
    23:00 +5°C° 0 mm 2 mps 760 mmHg 75%

    29 November, Wednesday

    Time Temperature Precipitation Wind Pressure Humidity
    00:00 +5°C° 0 mm 2 mps 760 mmHg 75%
    01:00 +5°C° 0 mm 2 mps 760 mmHg 76%
    02:00 +5°C° 0 mm 2 mps 760 mmHg 75%
    03:00 +5°C° 0 mm 2 mps 760 mmHg 73%
    04:00 +5°C° 0 mm 2 mps 760 mmHg 72%
    05:00 +5°C° 0 mm 2 mps 761 mmHg 72%
    06:00 +4°C° 0 mm 3 mps 761 mmHg 71%
    07:00 +4°C° 0 mm 3 mps 761 mmHg 70%
    08:00 +5°C° 0 mm 3 mps 761 mmHg 67%
    09:00 +8°C° 0 mm 3 mps 761 mmHg 63%
    10:00 +10°C° 0 mm 4 mps 761 mmHg 60%
    11:00 +10°C° 0 mm 4 mps 761 mmHg 59%
    12:00 +11°C° 0 mm 4 mps 760 mmHg 58%
    13:00 +10°C° 0 mm 5 mps 760 mmHg 57%
    14:00 +10°C° 0 mm 5 mps 760 mmHg 60%
    15:00 +9°C° 0 mm 5 mps 760 mmHg 64%
    16:00 +8°C° 0 mm 6 mps 760 mmHg 68%
    17:00 +7°C° 0.1 mm 6 mps 760 mmHg 68%
    18:00 +6°C° 0.1 mm 7 mps 760 mmHg 69%
    19:00 +5°C° 0.1 mm 8 mps 760 mmHg 69%
    20:00 +5°C° 0 mm 8 mps 760 mmHg 69%
    21:00 +5°C° 0 mm 9 mps 760 mmHg 68%
    22:00 +5°C° 0 mm 9 mps 759 mmHg 68%
    23:00 +5°C° 0.1 mm 10 mps 759 mmHg 68%
    Show more